Location: Bakov nad Jizerou
(50.4784°N, 14.9394°E)
Time: 13:47:17
(UTC+00:00)

H-2A R/B - Pass Details

Date: 16 June 2021
Orbit: 574 x 597 km, 98.2° (Epoch: 03 August)

Event Time Altitude Azimuth Distance (km) Brightness Sun altitude
Rises 20:24:20 0° 22° (NNE) 2,801 7.4 -8.4°
Reaches altitude 10° 20:26:42 10° 33° (NNE) 1,895 6.3 -8.7°
Maximum altitude 20:30:21 30° 96° (E) 1,037 4.4 -9.0°
Enters shadow 20:33:35 12° 156° (SSE) 1,745 5.2 -9.3°
